Weather History for Hilton Head Island, SC

Change the Weather History Date:

Monday, January 27, 2014

  Actual Average Record
Temperature  
Mean Temperature 54 °F -  
Max Temperature 64 °F 58 °F 64 °F (2014)
Min Temperature 44 °F 38 °F 44 °F (2014)
Degree Days  
Heating Degree Days 11    
Growing Degree Days 4 (Base 50)    
Moisture  
Dew Point 46 °F    
Average Humidity 80    
Maximum Humidity 94    
Minimum Humidity 64    
Precipitation  
Precipitation 0.00 in - - ()
Sea Level Pressure  
Sea Level Pressure 29.97 in    
Wind  
Wind Speed 4 mph (SSW)    
Max Wind Speed 8 mph    
Max Gust Speed -    
Visibility 10 miles    
Events      
Averages and records for this station are not official NWS values.
T = Trace of Precipitation, MM = Missing Value Source: NWS Daily Summary

Daily Weather History Graph

Daily Weather History Graph

Search for Another Location

Airport:

Trip Planner

Search our weather history database for the weather conditions in past years. The results will help you decide how hot, cold, wet, or windy it might be!

Date:

Astronomy

Jan. 27, 2014 Rise Set
Actual Time 7:19 AM EST 5:51 PM EST
Civil Twilight 6:53 AM EST 6:17 PM EST
Nautical Twilight 6:24 AM EST 6:47 PM EST
Astronomical Twilight 5:55 AM EST 7:16 PM EST
Moon 3:57 AM EST (1/27) 2:38 PM EST (1/27)
Length of Visible Light 11h 23m
Length of Day
10h 32m
Waning Crescent, 15% of the Moon is Illuminated
Jan 27
Waning Crescent
Jan 30
New
Feb 6
First Quarter
Feb 14
Full
Feb 22
Last Quarter

Hourly Weather History & Observations

Time (EST) Temp. Windchill Dew Point Humidity Pressure Visibility Wind Dir Wind Speed Gust Speed Precip Events Conditions
12:15 AM 48.2 °F - 39.2 °F 71% 30.01 in 10.0 mi SW 4.6 mph - 0.00 in   Clear
12:35 AM 46.4 °F - 39.2 °F 76% 30.00 in 10.0 mi Calm Calm - 0.00 in   Clear
12:55 AM 46.4 °F - 39.2 °F 76% 29.99 in 10.0 mi Calm Calm - 0.00 in   Clear
1:15 AM 46.4 °F 44.3 °F 39.2 °F 76% 29.99 in 10.0 mi South 4.6 mph - 0.00 in   Clear
1:35 AM 46.4 °F 45.2 °F 39.2 °F 76% 29.98 in 10.0 mi South 3.5 mph - 0.00 in   Clear
1:55 AM 46.4 °F 45.2 °F 39.2 °F 76% 29.98 in 10.0 mi South 3.5 mph - 0.00 in   Clear
2:15 AM 46.4 °F 45.2 °F 39.2 °F 76% 29.98 in 10.0 mi SSW 3.5 mph - 0.00 in   Clear
2:35 AM 46.4 °F 44.3 °F 39.2 °F 76% 29.98 in 10.0 mi South 4.6 mph - 0.00 in   Clear
2:55 AM 46.4 °F 45.2 °F 39.2 °F 76% 29.99 in 10.0 mi SSW 3.5 mph - 0.00 in   Clear
3:15 AM 46.4 °F 45.2 °F 39.2 °F 76% 29.98 in 10.0 mi South 3.5 mph - 0.00 in   Clear
3:35 AM 48.2 °F - 41.0 °F 76% 29.98 in 10.0 mi SSW 3.5 mph - 0.00 in   Clear
3:55 AM 48.2 °F - 41.0 °F 76% 29.98 in 10.0 mi SSW 3.5 mph - 0.00 in   Clear
4:15 AM 46.4 °F 45.2 °F 41.0 °F 81% 29.98 in 10.0 mi SSW 3.5 mph - 0.00 in   Clear
4:35 AM 46.4 °F 45.2 °F 39.2 °F 76% 29.98 in 10.0 mi South 3.5 mph - 0.00 in   Clear
4:55 AM 46.4 °F 45.2 °F 39.2 °F 76% 29.98 in 10.0 mi South 3.5 mph - 0.00 in   Clear
5:15 AM 44.6 °F 43.1 °F 41.0 °F 87% 29.97 in 10.0 mi SSW 3.5 mph - 0.00 in   Clear
5:35 AM 44.6 °F 41.4 °F 41.0 °F 87% 29.98 in 10.0 mi SSW 5.8 mph - 0.00 in   Clear
6:50 AM 48.2 °F - 41.0 °F 76% 29.97 in 10.0 mi SW 6.9 mph - N/A   Mostly Cloudy
7:50 AM 48.2 °F - 42.8 °F 82% 29.98 in 10.0 mi SSW 4.6 mph - N/A   Scattered Clouds
8:50 AM 51.8 °F - 44.6 °F 76% 29.99 in 10.0 mi WSW 8.1 mph - N/A   Partly Cloudy
9:50 AM 55.4 °F - 48.2 °F 77% 30.00 in 10.0 mi SW 6.9 mph - N/A   Partly Cloudy
10:50 AM 59.0 °F - 50.0 °F 72% 30.00 in 10.0 mi SW 8.1 mph - N/A   Partly Cloudy
11:50 AM 60.8 °F - 50.0 °F 68% 29.96 in 10.0 mi South 6.9 mph - N/A   Partly Cloudy
12:50 PM 60.8 °F - 50.0 °F 68% 29.94 in 10.0 mi South 8.1 mph - N/A   Scattered Clouds
1:50 PM 64.4 °F - 51.8 °F 64% 29.90 in 10.0 mi SSE 5.8 mph - N/A   Partly Cloudy
2:50 PM 60.8 °F - 51.8 °F 72% 29.90 in 10.0 mi SSE 5.8 mph - N/A   Partly Cloudy
3:50 PM 60.8 °F - 51.8 °F 72% 29.89 in 9.0 mi SSE 8.1 mph - N/A   Partly Cloudy
4:50 PM 60.8 °F - 51.8 °F 72% 29.91 in 8.0 mi South 8.1 mph - N/A   Partly Cloudy
5:50 PM 57.2 °F - 51.8 °F 82% 29.92 in 10.0 mi SSW 6.9 mph - N/A   Partly Cloudy
6:50 PM 55.4 °F - 51.8 °F 88% 29.95 in 10.0 mi South 3.5 mph - N/A   Scattered Clouds
7:50 PM 57.2 °F - 51.8 °F 82% 29.95 in 10.0 mi Calm Calm - N/A   Partly Cloudy
8:15 PM 55.4 °F - 51.8 °F 88% 29.96 in 10.0 mi SSE 4.6 mph - 0.00 in   Clear
8:35 PM 55.4 °F - 53.6 °F 94% 29.97 in 10.0 mi South 4.6 mph - 0.00 in   Scattered Clouds
8:55 PM 55.4 °F - 53.6 °F 94% 29.97 in 10.0 mi South 3.5 mph - 0.00 in   Scattered Clouds
9:15 PM 55.4 °F - 53.6 °F 94% 29.98 in 10.0 mi Calm Calm - 0.00 in   Clear
9:35 PM 55.4 °F - 51.8 °F 88% 29.99 in 10.0 mi Calm Calm - 0.00 in   Clear
9:55 PM 55.4 °F - 51.8 °F 88% 29.99 in 10.0 mi Calm Calm - 0.00 in   Scattered Clouds
10:15 PM 55.4 °F - 53.6 °F 94% 30.00 in 10.0 mi SW 3.5 mph - 0.00 in   Scattered Clouds
10:35 PM 55.4 °F - 53.6 °F 94% 30.00 in 10.0 mi SSW 4.6 mph - 0.00 in   Clear
10:55 PM 57.2 °F - 51.8 °F 82% 30.00 in 10.0 mi SW 3.5 mph - 0.00 in   Clear
11:15 PM 57.2 °F - 51.8 °F 82% 30.01 in 10.0 mi West 4.6 mph - 0.00 in   Scattered Clouds
11:35 PM 59.0 °F - 51.8 °F 77% 30.01 in 10.0 mi West 3.5 mph - 0.00 in   Mostly Cloudy
11:55 PM 57.2 °F - 51.8 °F 82% 30.01 in 10.0 mi WNW 3.5 mph - 0.00 in   Mostly Cloudy